Location: ????????
(55.6333°N, 37.7000°E)
Time: 01:59:41
(UTC+00:00)

Cosmos 2112 Rocket - Pass Details

Date: 19 May 2025
Orbit: 753 x 782 km, 74.0° (Epoch: 14 June)

Event Time Altitude Azimuth Distance (km) Brightness Sun altitude
Exits shadow 22:01:01 21° 188° (S) 1,667 5.1 -14.0°
Maximum altitude 22:04:28 64° 112° (ESE) 847 4.1 -13.9°
Drops below altitude 10° 22:09:38 10° 32° (NNE) 2,307 7.6 -13.8°
Sets 22:12:02 0° 30° (NNE) 3,233 8.7 -13.8°
